Regional Weather Roundup
Issued by NWS Newport/Morehead, NC

Current Version | Previous Version | Graphics & Text | Print | Product List | Glossary Off
Versions: 1 2 3 4 5 6 7 8 9 10 11 12 13 14 15 16 17 18 19 20 21 22 23 24 25 26 27 28 29 30 31 32 33 34 35 36 37 38 39 40 41 42 43 44 45 46 47 48 49 50

000
ASUS42 KMHX 210526
RWRMHX
WEATHER ROUNDUP FOR EASTERN NORTH CAROLINA
NATIONAL WEATHER SERVICE NEWPORT/MOREHEAD CITY NC
100 AM EDT MON AUG 21 2017

NOTE: "FAIR" INDICATES FEW OR NO CLOUDS BELOW 12,000 FEET
WITH NO SIGNIFICANT WEATHER AND/OR OBSTRUCTIONS TO VISIBILITY

NCZ015>017-031-032-045>047-102-103-210600-
NORTH COAST

CITY           SKY/WX    TMP DP  RH WIND       PRES   REMARKS
EDENTON        CLEAR     77  75  93 CALM      30.19R
ELIZABETH CITY CLEAR     77  76  96 CALM      30.18S
KITTY HAWK     CLEAR     76  76  98 CALM      30.17S
MANTEO         PTCLDY    75  74  96 CALM      30.18S

$$

NCZ045>047-081-094-103-104-210600-
CENTRAL COAST

CITY           SKY/WX    TMP DP  RH WIND       PRES   REMARKS
FRISCO         PTCLDY    78  77  96 NE3       30.17R

$$

NCZ095-097-098-100-101-210600-
SOUTHERN COAST

CITY           SKY/WX    TMP DP  RH WIND       PRES   REMARKS
BEAUFORT       CLOUDY    76  76 100 CALM      30.16S
CEDAR ISLAND   NOT AVBL
JACKSONVILLE   CLOUDY    76  76 100 CALM      30.15S
PINEY ISLAND   CLOUDY   N/A N/A N/A CALM      30.16S
WILMINGTON     CLOUDY    77  75  93 CALM      30.15S


$$

NCZ011>013-027>030-043-044-078>080-089-090>093-098-210600-
COASTAL PLAIN

CITY           SKY/WX    TMP DP  RH WIND       PRES   REMARKS
AHOSKIE          N/A     73  73  98 CALM      30.19S
CLINTON        PTCLDY    74  74 100 CALM      30.17S
ELIZABETHTOWN  NOT AVBL
GOLDSBORO      CLEAR     78  73  85 SW1       30.18R
GREENVILLE     CLOUDY    73  73 100 CALM      30.19R
HAVELOCK       CLOUDY    77  75  93 NE3       30.17S
KENANSVILLE    MOCLDY    72  72 100 CALM      30.17S FOG
KINSTON        CLOUDY    75  73  96 CALM      30.18S
NEW BERN       CLOUDY    74  74 100 CALM      30.18S FOG
RICHLANDS      PTCLDY    73  72  96 CALM      30.17S
ROCKY MOUNT    CLOUDY    73  73 100 CALM      30.18R FOG
WASHINGTON     CLOUDY    74  73  96 CALM      30.18S
WHITEVILLE     PTCLDY    76  75  97 CALM      30.15S FOG

$$

AMZ130-135-150-152-154-156-158-170-250-252-270-ANZ085-086-088-633-658-670-210600-
MARINE OBSERVATIONS

STATION/POSITION TIME  TEMP    WIND        PRES    WAVE   SWELL
                       AIR SEA DIR/SP/G            HT/PER HT/PER
                 (UTC) (F)     (DEG/KT/KT) (MB)    (FT/S) (FT/S)
CHESAPEAKE LIGHT NOT AVBL
64 E VA BEACH    0450   78 79   90/  4/  6 1022.6    2/ 8   2/ 8
DUCK             0500   79 79  120/  6/  7 1021.6
2 E DUCK         0500      79                N/A     2/ 8
OREGON INLET     0500   77 80   50/  3/  4 1021.8
13E OREGON INLT  0448      80                N/A     2/ 8   2/ 8
HATTERAS CG      0500   79 79   80/  2/  3 1021.5
DIAMOND BUOY     0450   83 85   CALM  /  2 1021.4    2/ 8   2/ 8
CAPE LOOKOUT     0500   81      60/  4/  4 1020.9
BEAUFORT LAB     0500   80 81   60/  2/  3 1020.7
30 SE NEW RVR IN 0508   81 84  170/  4/  8 1021.2
30 SE NEW RVR IN 0513      84                N/A     2/ 8
27 SE WRIGHTSVLE 0508   83 84  170/  4/  6 1021.0
5 SE WRIGHTSVLE  0508   83 83  230/  4/  6 1020.8
225 S CAPE HAT   0450   81 85   90/  4/  6 1021.3    3/ 7   3/ 7
41 SE CHARLESTON 0510   84 85  170/  4/  6 1020.0

$$




USA.gov is the U.S. government's official web portal to all federal, state and local government web resources and services.